Weather History for KD25 - February, 2014

Change the Weather History Date:

Saturday, February 8, 2014

  Actual Average (KARV) Record (KARV)
Temperature  
Mean Temperature -4 °F -  
Max Temperature 15 °F 24 °F 71 °F (2009)
Min Temperature -23 °F -4 °F -35 °F (1934)
Degree Days  
Heating Degree Days 69    
Moisture  
Dew Point -11 °F    
Average Humidity 71    
Maximum Humidity 85    
Minimum Humidity 55    
Precipitation  
Precipitation 0.00 in - - ()
Sea Level Pressure  
Sea Level Pressure 30.03 in    
Wind  
Wind Speed 2 mph (SW)    
Max Wind Speed 9 mph    
Max Gust Speed -    
Visibility 10 miles    
Events Snow    
Averages and records for this station are not official NWS values.
T = Trace of Precipitation, MM = Missing Value Source: NWS Daily Summary

Daily Weather History Graph

Daily Weather History Graph

Search for Another Location

Airport or City:

Trip Planner

Search our weather history database for the weather conditions in past years. The results will help you decide how hot, cold, wet, or windy it might be!

Date:

Astronomy

Feb. 08, 2014 Rise Set
Actual Time 7:12 AM CST 5:15 PM CST
Civil Twilight 6:41 AM CST 5:46 PM CST
Nautical Twilight 6:06 AM CST 6:22 PM CST
Astronomical Twilight 5:31 AM CST 6:56 PM CST
Moon 12:04 PM CST (2/8) 2:30 AM CST (2/8)
Length of Visible Light 11h 05m
Length of Day
10h 02m
Waxing Gibbous, 69% of the Moon is Illuminated
Feb 8
Waxing Gibbous
Feb 14
Full
Feb 22
Last Quarter
Mar 1
New
Mar 8
First Quarter

Hourly Weather History & Observations

Time (CST) Temp. Windchill Dew Point Humidity Pressure Visibility Wind Dir Wind Speed Gust Speed Precip Events Conditions
12:15 AM -7.4 °F -16.3 °F -13.5 °F 75% 30.06 in 10.0 mi SW 3.5 mph - N/A   Clear
12:35 AM -8.1 °F -17.1 °F -14.3 °F 75% 30.05 in 10.0 mi SSW 3.5 mph - N/A   Clear
12:55 AM -14.1 °F -23.9 °F -18.8 °F 79% 30.05 in 10.0 mi SSW 3.5 mph - N/A   Clear
1:15 AM -14.4 °F -24.3 °F -19.1 °F 79% 30.05 in 10.0 mi SSW 3.5 mph - N/A   Clear
1:35 AM -16.8 °F -27.0 °F -22.2 °F 76% 30.05 in 10.0 mi SW 3.5 mph - N/A   Clear
1:55 AM -15.9 °F -26.0 °F -20.7 °F 79% 30.06 in 10.0 mi SW 3.5 mph - N/A   Clear
2:15 AM -16.8 °F -27.0 °F -22.4 °F 76% 30.06 in 10.0 mi SW 3.5 mph - N/A   Clear
2:35 AM -17.7 °F -28.0 °F -23.3 °F 76% 30.06 in 10.0 mi SW 3.5 mph - N/A   Clear
2:55 AM -17.3 °F - -22.5 °F 77% 30.06 in 10.0 mi Calm Calm - N/A   Clear
3:15 AM -18.0 °F - -22.9 °F 78% 30.06 in 10.0 mi Calm Calm - N/A   Clear
3:35 AM -18.8 °F - -23.6 °F 78% 30.06 in 10.0 mi Calm Calm - N/A   Clear
3:55 AM -18.9 °F - -24.2 °F 77% 30.06 in 10.0 mi Calm Calm - N/A   Clear
4:15 AM -19.3 °F - -25.1 °F 75% 30.06 in 10.0 mi Calm Calm - N/A   Clear
4:35 AM -19.7 °F - -25.4 °F 75% 30.06 in 10.0 mi Calm Calm - N/A   Clear
4:55 AM -20.2 °F - -25.8 °F 75% 30.06 in 10.0 mi Calm Calm - N/A   Clear
5:15 AM -19.5 °F - -24.3 °F 78% 30.05 in 10.0 mi Calm Calm - N/A   Clear
5:35 AM -22.4 °F - -28.5 °F 73% 30.05 in 10.0 mi Calm Calm - N/A   Clear
5:55 AM -21.6 °F - -27.9 °F 73% 30.05 in 10.0 mi Calm Calm - N/A   Clear
6:15 AM -23.1 °F - -29.2 °F 73% 30.05 in 10.0 mi Calm Calm - N/A   Clear
6:35 AM -22.5 °F - -28.7 °F 73% 30.05 in 10.0 mi Calm Calm - N/A   Clear
6:55 AM -22.9 °F - -29.2 °F 72% 30.05 in 10.0 mi Calm Calm - N/A   Clear
7:15 AM -22.7 °F - -28.8 °F 73% 30.05 in 4.0 mi Calm Calm - N/A Snow Light Snow
7:35 AM -19.8 °F - -26.0 °F 73% 30.06 in 10.0 mi Calm Calm - N/A   Overcast
7:55 AM -18.0 °F - -24.2 °F 74% 30.05 in 7.0 mi Calm Calm - N/A   Overcast
8:15 AM -17.5 °F - -23.6 °F 74% 30.06 in 7.0 mi Calm Calm - N/A   Overcast
8:35 AM -15.2 °F - -20.9 °F 75% 30.05 in 10.0 mi Calm Calm - N/A   Overcast
8:55 AM -12.3 °F - -18.0 °F 76% 30.05 in 10.0 mi Calm Calm - N/A   Mostly Cloudy
9:15 AM -8.5 °F - -13.4 °F 79% 30.05 in 10.0 mi Calm Calm - N/A   Scattered Clouds
9:35 AM -4.9 °F - -9.4 °F 81% 30.05 in 10.0 mi Calm Calm - N/A   Clear
9:55 AM -0.0 °F - -5.4 °F 78% 30.05 in 10.0 mi Calm Calm - N/A   Clear
10:15 AM 2.7 °F - -3.6 °F 75% 30.04 in 10.0 mi Calm Calm - N/A   Clear
10:35 AM 5.0 °F - -2.6 °F 71% 30.04 in 10.0 mi Calm Calm - N/A   Clear
10:55 AM 6.6 °F -0.3 °F -2.0 °F 68% 30.04 in 10.0 mi South 3.5 mph - N/A   Clear
11:15 AM 8.6 °F - -1.3 °F 64% 30.04 in 10.0 mi Calm Calm - N/A   Clear
11:35 AM 11.8 °F 1.3 °F 0.7 °F 61% 30.03 in 10.0 mi SSW 6.9 mph - N/A   Scattered Clouds
11:55 AM 13.8 °F 3.7 °F 2.3 °F 60% 30.02 in 10.0 mi SW 6.9 mph - N/A   Mostly Cloudy
12:15 PM 14.2 °F 2.2 °F 2.3 °F 59% 30.01 in 10.0 mi SW 9.2 mph - N/A   Mostly Cloudy
12:35 PM 14.5 °F 3.6 °F 2.1 °F 58% 30.00 in 10.0 mi SW 8.1 mph - N/A   Mostly Cloudy
12:55 PM 15.1 °F 4.2 °F 2.5 °F 58% 29.99 in 10.0 mi SSW 8.1 mph - N/A   Mostly Cloudy
1:15 PM 14.7 °F 3.8 °F 2.1 °F 57% 29.99 in 10.0 mi SW 8.1 mph - N/A   Mostly Cloudy
1:35 PM 14.9 °F 7.5 °F 2.3 °F 57% 29.99 in 10.0 mi WSW 4.6 mph - N/A   Mostly Cloudy
1:55 PM 14.9 °F 5.0 °F 2.3 °F 57% 29.98 in 10.0 mi SW 6.9 mph - N/A   Overcast
2:15 PM 14.9 °F 3.1 °F 2.1 °F 57% 29.98 in 10.0 mi SW 9.2 mph - N/A   Overcast
2:35 PM 14.4 °F 2.4 °F 2.1 °F 58% 29.98 in 10.0 mi SSW 9.2 mph - N/A   Overcast
2:55 PM 14.7 °F 4.8 °F 2.1 °F 57% 29.99 in 10.0 mi SW 6.9 mph - N/A   Overcast
3:15 PM 15.1 °F 6.4 °F 1.4 °F 55% 29.99 in 10.0 mi West 5.8 mph - N/A   Overcast
3:35 PM 14.4 °F 8.6 °F 0.7 °F 55% 29.99 in 10.0 mi West 3.5 mph - N/A   Mostly Cloudy
3:55 PM 14.4 °F 5.5 °F 1.0 °F 56% 29.99 in 10.0 mi West 5.8 mph - N/A   Mostly Cloudy
4:15 PM 14.5 °F 5.7 °F 1.0 °F 55% 29.99 in 10.0 mi West 5.8 mph - N/A   Scattered Clouds
4:35 PM 14.0 °F 6.5 °F 0.9 °F 56% 30.00 in 10.0 mi West 4.6 mph - N/A   Clear
4:55 PM 13.8 °F 8.0 °F 0.5 °F 56% 30.00 in 10.0 mi West 3.5 mph - N/A   Clear
5:15 PM 12.9 °F 6.9 °F -0.4 °F 55% 30.01 in 10.0 mi West 3.5 mph - N/A   Clear
5:35 PM 12.0 °F 5.9 °F -0.4 °F 58% 30.01 in 10.0 mi West 3.5 mph - N/A   Clear
5:55 PM 5.4 °F - -4.7 °F 63% 30.01 in 10.0 mi Calm Calm - N/A   Clear
6:15 PM 4.6 °F - -2.4 °F 73% 30.01 in 10.0 mi Calm Calm - N/A   Clear
6:35 PM 2.8 °F - -3.8 °F 74% 30.01 in 10.0 mi Calm Calm - N/A   Clear
6:55 PM 2.3 °F - -2.9 °F 79% 30.01 in 10.0 mi Calm Calm - N/A   Clear
7:15 PM -0.0 °F - -5.1 °F 79% 30.01 in 10.0 mi Calm Calm - N/A   Scattered Clouds
7:35 PM -0.4 °F - -6.0 °F 77% 30.02 in 10.0 mi Calm Calm - N/A   Mostly Cloudy
7:55 PM 0.7 °F - -4.0 °F 81% 30.01 in 10.0 mi Calm Calm - N/A   Scattered Clouds
8:15 PM -0.8 °F - -4.5 °F 84% 30.01 in 10.0 mi Calm Calm - N/A   Clear
8:35 PM -0.8 °F - -5.8 °F 79% 30.01 in 10.0 mi Calm Calm - N/A   Clear
8:55 PM -2.2 °F - -6.9 °F 80% 30.01 in 10.0 mi Calm Calm - N/A   Clear
9:15 PM -3.1 °F -11.4 °F -7.1 °F 83% 30.01 in 10.0 mi WSW 3.5 mph - N/A   Clear
9:35 PM -2.2 °F - -6.5 °F 82% 30.01 in 10.0 mi Calm Calm - N/A   Clear
9:55 PM -5.1 °F - -10.3 °F 78% 30.02 in 10.0 mi Calm Calm - N/A   Clear
10:15 PM -5.6 °F - -9.9 °F 82% 30.02 in 10.0 mi Calm Calm - N/A   Clear
10:35 PM -4.0 °F - -8.3 °F 82% 30.02 in 10.0 mi Calm Calm - N/A   Clear
10:55 PM -4.5 °F - -9.4 °F 80% 30.02 in 10.0 mi Calm Calm - N/A   Clear
11:15 PM -2.2 °F - -5.6 °F 85% 30.02 in 10.0 mi Calm Calm - N/A   Clear
11:35 PM -2.9 °F - -7.1 °F 82% 30.02 in 10.0 mi Calm Calm - N/A   Mostly Cloudy
11:55 PM -3.3 °F - -8.1 °F 80% 30.02 in 10.0 mi Calm Calm - N/A   Overcast